QPF
0.00 0.00 0.00 0.00 0.00 0.00 0.00 0.00 0.00 0.00 0.00 0.00 0.00 0.00 0.00 0.00 0.00 0.00 0.00 0.00 0.00 0.00 0.00 0.00 0.00 0.00 0.00 0.00 0.00 0.01 0.01 0.03 0.04 0.01 0.00 0.00 0.00 0.00 0.00 0.00 0.00 0.00 0.00
0.00 0.00 0.00 0.00 0.00 0.00 0.00 0.00 0.00 0.00 0.00 0.00 0.00 0.00 0.00 0.00 0.00 0.01 0.01 0.01 0.00 0.00 0.00 0.00 0.00 0.00 0.00 0.00 0.00 0.01 0.01 0.01 0.03 0.02 0.00 0.00 0.00 0.00 0.00 0.00 0.00 0.00 0.00
0.00 0.00 0.00 0.00 0.00 0.00 0.00 0.00 0.00 0.00 0.00 0.00 0.00 0.00 0.00 0.01 0.01 0.01 0.01 0.01 0.00 0.00 0.00 0.00 0.00 0.00 0.00 0.00 0.00 0.00 0.00 0.01 0.02 0.03 0.01 0.00 0.00 0.00 0.00 0.00 0.00 0.00 0.00
0.00 0.00 0.00 0.00 0.00 0.00 0.00 0.00 0.00 0.00 0.00 0.00 0.00 0.00 0.01 0.01 0.01 0.01 0.01 0.01 0.01 0.00 0.00 0.00 0.00 0.00 0.00 0.00 0.01 0.01 0.01 0.03 0.03 0.04 0.03 0.01 0.01 0.01 0.01 0.01 0.01 0.00 0.00
0.00 0.00 0.00 0.00 0.00 0.00 0.00 0.00 0.00 0.00 0.00 0.00 0.00 0.00 0.01 0.01 0.01 0.01 0.01 0.01 0.01 0.00 0.00 0.00 0.00 0.00 0.01 0.01 0.03 0.03 0.05 0.07 0.06 0.05 0.04 0.03 0.02 0.02 0.02 0.01 0.01 0.01 0.00
0.00 0.00 0.00 0.00 0.00 0.00 0.00 0.00 0.00 0.00 0.00 0.00 0.00 0.01 0.01 0.01 0.02 0.02 0.01 0.01 0.00 0.00 0.00 0.00 0.00 0.00 0.00 0.01 0.02 0.02 0.04 0.06 0.07 0.06 0.05 0.03 0.02 0.01 0.01 0.02 0.02 0.02 0.01
0.00 0.00 0.00 0.00 0.00 0.00 0.00 0.00 0.00 0.00 0.00 0.00 0.01 0.01 0.02 0.02 0.02 0.02 0.01 0.01 0.00 0.00 0.00 0.00 0.00 0.00 0.00 0.00 0.00 0.01 0.01 0.02 0.03 0.05 0.04 0.02 0.01 0.01 0.02 0.03 0.02 0.03 0.02
0.00 0.00 0.00 0.00 0.00 0.00 0.00 0.00 0.00 0.00 0.00 0.00 0.01 0.01 0.02 0.02 0.02 0.01 0.01 0.01 0.01 0.00 0.00 0.00 0.00 0.00 0.00 0.00 0.01 0.02 0.02 0.01 0.01 0.01 0.02 0.02 0.03 0.04 0.07 0.07 0.05 0.03 0.01
0.00 0.00 0.00 0.00 0.00 0.00 0.00 0.00 0.00 0.00 0.00 0.01 0.01 0.01 0.02 0.01 0.01 0.01 0.01 0.02 0.01 0.00 0.00 0.00 0.00 0.00 0.00 0.01 0.03 0.03 0.02 0.01 0.00 0.01 0.01 0.02 0.02 0.03 0.04 0.06 0.04 0.03 0.01
0.00 0.00 0.00 0.00 0.00 0.00 0.00 0.00 0.00 0.00 0.00 0.01 0.01 0.01 0.01 0.01 0.01 0.01 0.02 0.02 0.01 0.00 0.00 0.00 0.00 0.00 0.01 0.01 0.03 0.03 0.02 0.01 0.01 0.01 0.00 0.00 0.00 0.00 0.01 0.03 0.04 0.04 0.02
0.00 0.00 0.00 0.00 0.00 0.00 0.00 0.00 0.00 0.00 0.00 0.00 0.01 0.01 0.01 0.01 0.01 0.01 0.02 0.02 0.01 0.00 0.00 0.00 0.00 0.00 0.01 0.01 0.02 0.02 0.02 0.02 0.03 0.01 0.00 0.00 0.00 0.00 0.00 0.01 0.03 0.04 0.04
0.00 0.00 0.00 0.00 0.00 0.00 0.00 0.00 0.00 0.00 0.00 0.00 0.01 0.01 0.01 0.01 0.01 0.01 0.02 0.02 0.01 0.00 0.00 0.00 0.00 0.00 0.01 0.01 0.01 0.01 0.01 0.02 0.01 0.00 0.00 0.00 0.00 0.00 0.00 0.01 0.01 0.03 0.03
0.00 0.00 0.00 0.00 0.00 0.00 0.00 0.00 0.00 0.00 0.00 0.00 0.01 0.01 0.01 0.01 0.01 0.01 0.01 0.02 0.02 0.01 0.00 0.00 0.00 0.01 0.01 0.01 0.01 0.01 0.01 0.01 0.00 0.00 0.00 0.00 0.00 0.00 0.01 0.01 0.01 0.01 0.02
0.00 0.00 0.00 0.00 0.00 0.00 0.00 0.00 0.00 0.00 0.00 0.00 0.01 0.01 0.01 0.01 0.01 0.02 0.02 0.01 0.01 0.02 0.01 0.00 0.00 0.00 0.00 0.00 0.00 0.00 0.00 0.00 0.00 0.00 0.00 0.00 0.00 0.00 0.01 0.01 0.01 0.01 0.02
0.00 0.00 0.00 0.00 0.00 0.00 0.00 0.00 0.00 0.00 0.00 0.00 0.01 0.01 0.01 0.01 0.01 0.01 0.01 0.01 0.01 0.01 0.01 0.01 0.00 0.00 0.00 0.00 0.00 0.00 0.00 0.00 0.00 0.00 0.00 0.00 0.00 0.00 0.01 0.01 0.01 0.02 0.03
0.00 0.00 0.00 0.00 0.00 0.00 0.00 0.00 0.00 0.00 0.00 0.00 0.01 0.01 0.01 0.01 0.01 0.02 0.01 0.01 0.01 0.01 0.01 0.01 0.00 0.00 0.00 0.00 0.00 0.00 0.00 0.00 0.00 0.00 0.00 0.00 0.01 0.01 0.01 0.01 0.01 0.02 0.03
0.00 0.00 0.00 0.00 0.00 0.00 0.00 0.00 0.00 0.00 0.00 0.01 0.01 0.02 0.02 0.01 0.02 0.02 0.01 0.01 0.01 0.01 0.01 0.00 0.00 0.00 0.00 0.00 0.00 0.00 0.00 0.00 0.00 0.00 0.00 0.01 0.01 0.01 0.01 0.01 0.01 0.02 0.02
0.00 0.00 0.00 0.00 0.00 0.01 0.01 0.01 0.01 0.01 0.01 0.01 0.01 0.02 0.03 0.03 0.03 0.02 0.02 0.02 0.02 0.01 0.01 0.00 0.00 0.00 0.00 0.00 0.00 0.00 0.00 0.00 0.00 0.00 0.00 0.01 0.01 0.01 0.01 0.01 0.01 0.02 0.02
0.00 0.00 0.01 0.01 0.01 0.01 0.01 0.01 0.01 0.01 0.02 0.02 0.02 0.03 0.04 0.04 0.04 0.03 0.03 0.02 0.01 0.01 0.00 0.00 0.00 0.00 0.00 0.00 0.00 0.00 0.00 0.00 0.00 0.01 0.01 0.01 0.01 0.01 0.01 0.01 0.01 0.02 0.03
0.00 0.01 0.01 0.02 0.02 0.02 0.02 0.02 0.02 0.02 0.02 0.03 0.03 0.03 0.05 0.07 0.06 0.04 0.04 0.02 0.01 0.00 0.00 0.00 0.00 0.00 0.00 0.00 0.00 0.00 0.00 0.00 0.00 0.01 0.01 0.01 0.01 0.01 0.01 0.01 0.01 0.02 0.03
0.01 0.01 0.02 0.03 0.03 0.02 0.03 0.03 0.03 0.03 0.03 0.03 0.03 0.03 0.04 0.06 0.04 0.03 0.03 0.02 0.01 0.00 0.00 0.00 0.00 0.00 0.00 0.00 0.00 0.00 0.00 0.00 0.00 0.01 0.01 0.01 0.01 0.01 0.01 0.01 0.02 0.02 0.03
0.01 0.02 0.02 0.02 0.02 0.03 0.03 0.03 0.03 0.03 0.03 0.03 0.03 0.03 0.05 0.05 0.04 0.03 0.02 0.01 0.01 0.00 0.00 0.00 0.00 0.00 0.00 0.00 0.00 0.00 0.00 0.00 0.01 0.01 0.01 0.01 0.01 0.01 0.01 0.01 0.02 0.03 0.04
0.02 0.02 0.02 0.02 0.02 0.03 0.04 0.03 0.03 0.03 0.03 0.03 0.03 0.03 0.04 0.04 0.03 0.02 0.02 0.01 0.01 0.00 0.00 0.00 0.00 0.00 0.00 0.00 0.00 0.01 0.01 0.01 0.01 0.02 0.02 0.01 0.01 0.01 0.01 0.01 0.01 0.02 0.04
0.02 0.02 0.02 0.02 0.03 0.03 0.03 0.03 0.03 0.03 0.03 0.03 0.03 0.03 0.03 0.02 0.02 0.02 0.02 0.01 0.00 0.00 0.00 0.00 0.00 0.00 0.00 0.00 0.00 0.00 0.01 0.01 0.02 0.02 0.02 0.02 0.01 0.01 0.01 0.01 0.01 0.02 0.03
0.02 0.02 0.03 0.03 0.03 0.03 0.03 0.03 0.03 0.03 0.03 0.03 0.03 0.02 0.02 0.02 0.02 0.02 0.01 0.01 0.00 0.00 0.00 0.00 0.00 0.00 0.00 0.00 0.00 0.01 0.01 0.02 0.03 0.03 0.02 0.01 0.01 0.01 0.01 0.01 0.01 0.02 0.03
0.02 0.02 0.03 0.03 0.04 0.04 0.04 0.04 0.03 0.03 0.03 0.03 0.02 0.02 0.02 0.02 0.02 0.01 0.01 0.00 0.00 0.00 0.00 0.00 0.00 0.00 0.00 0.00 0.00 0.01 0.01 0.02 0.02 0.02 0.02 0.01 0.01 0.01 0.01 0.01 0.01 0.02 0.03
MSLP
1009.16 1009.57 1009.93 1010.22 1010.42 1010.56 1010.68 1010.83 1011.06 1011.40 1011.87 1012.44 1013.10 1013.79 1014.47 1015.11 1015.70 1016.23 1016.72 1017.18 1017.64 1018.11 1018.58 1019.01 1019.39 1019.65 1019.76 1019.69 1019.42 1018.96 1018.35 1017.63 1016.84 1016.04 1015.26 1014.53 1013.85 1013.24 1012.67 1012.13 1011.60 1011.08 1010.56
1008.53 1008.88 1009.18 1009.43 1009.59 1009.70 1009.80 1009.93 1010.14 1010.45 1010.89 1011.43 1012.06 1012.72 1013.38 1014.01 1014.59 1015.11 1015.60 1016.07 1016.53 1016.99 1017.45 1017.89 1018.26 1018.54 1018.67 1018.62 1018.38 1017.96 1017.39 1016.70 1015.94 1015.15 1014.38 1013.64 1012.94 1012.29 1011.68 1011.09 1010.52 1009.94 1009.37
1007.99 1008.27 1008.51 1008.69 1008.80 1008.88 1008.95 1009.05 1009.23 1009.51 1009.91 1010.42 1011.00 1011.63 1012.26 1012.86 1013.43 1013.95 1014.44 1014.91 1015.37 1015.84 1016.29 1016.72 1017.09 1017.36 1017.50 1017.47 1017.26 1016.88 1016.36 1015.71 1015.00 1014.25 1013.49 1012.76 1012.07 1011.40 1010.76 1010.13 1009.51 1008.88 1008.25
1007.53 1007.72 1007.88 1007.99 1008.04 1008.07 1008.10 1008.17 1008.32 1008.57 1008.93 1009.40 1009.94 1010.52 1011.12 1011.70 1012.25 1012.77 1013.26 1013.73 1014.20 1014.66 1015.11 1015.52 1015.88 1016.14 1016.28 1016.26 1016.08 1015.74 1015.26 1014.67 1014.01 1013.31 1012.60 1011.90 1011.22 1010.56 1009.90 1009.25 1008.59 1007.92 1007.24
1007.13 1007.21 1007.28 1007.30 1007.29 1007.27 1007.26 1007.30 1007.43 1007.65 1007.98 1008.40 1008.90 1009.44 1010.00 1010.55 1011.08 1011.59 1012.08 1012.55 1013.01 1013.47 1013.90 1014.31 1014.64 1014.89 1015.02 1015.00 1014.84 1014.54 1014.11 1013.58 1012.98 1012.35 1011.69 1011.04 1010.40 1009.75 1009.11 1008.45 1007.77 1007.08 1006.37
1006.74 1006.72 1006.69 1006.63 1006.56 1006.48 1006.44 1006.46 1006.57 1006.77 1007.07 1007.46 1007.92 1008.42 1008.94 1009.46 1009.96 1010.45 1010.92 1011.38 1011.84 1012.28 1012.70 1013.08 1013.39 1013.62 1013.73 1013.72 1013.57 1013.29 1012.91 1012.45 1011.92 1011.36 1010.77 1010.18 1009.59 1008.98 1008.37 1007.73 1007.06 1006.37 1005.64
1006.36 1006.24 1006.10 1005.96 1005.83 1005.71 1005.65 1005.66 1005.76 1005.95 1006.24 1006.60 1007.03 1007.49 1007.96 1008.44 1008.91 1009.37 1009.81 1010.25 1010.68 1011.10 1011.49 1011.84 1012.12 1012.32 1012.42 1012.41 1012.28 1012.04 1011.70 1011.30 1010.84 1010.35 1009.84 1009.32 1008.80 1008.25 1007.68 1007.08 1006.45 1005.77 1005.06
1005.96 1005.74 1005.52 1005.30 1005.11 1004.97 1004.89 1004.90 1005.00 1005.20 1005.48 1005.82 1006.22 1006.64 1007.07 1007.50 1007.92 1008.34 1008.75 1009.15 1009.55 1009.93 1010.29 1010.60 1010.86 1011.04 1011.12 1011.11 1010.99 1010.79 1010.51 1010.16 1009.78 1009.37 1008.94 1008.49 1008.03 1007.55 1007.03 1006.49 1005.90 1005.26 1004.58
1005.55 1005.23 1004.92 1004.64 1004.41 1004.25 1004.17 1004.19 1004.30 1004.50 1004.77 1005.10 1005.47 1005.85 1006.23 1006.61 1006.98 1007.35 1007.71 1008.07 1008.43 1008.78 1009.10 1009.39 1009.62 1009.78 1009.86 1009.86 1009.77 1009.60 1009.37 1009.09 1008.78 1008.44 1008.08 1007.70 1007.30 1006.87 1006.41 1005.92 1005.37 1004.78 1004.15
1005.12 1004.72 1004.34 1004.00 1003.74 1003.56 1003.48 1003.51 1003.62 1003.82 1004.09 1004.39 1004.72 1005.06 1005.39 1005.72 1006.04 1006.36 1006.68 1007.00 1007.32 1007.64 1007.95 1008.21 1008.44 1008.59 1008.68 1008.70 1008.64 1008.51 1008.34 1008.12 1007.87 1007.59 1007.29 1006.96 1006.61 1006.23 1005.81 1005.35 1004.84 1004.29 1003.70
1004.68 1004.21 1003.77 1003.40 1003.10 1002.91 1002.82 1002.84 1002.96 1003.14 1003.39 1003.66 1003.95 1004.24 1004.52 1004.79 1005.06 1005.34 1005.62 1005.92 1006.23 1006.53 1006.83 1007.10 1007.32 1007.50 1007.61 1007.65 1007.64 1007.56 1007.44 1007.27 1007.07 1006.84 1006.58 1006.29 1005.96 1005.60 1005.20 1004.75 1004.27 1003.75 1003.19
1004.26 1003.73 1003.24 1002.83 1002.51 1002.30 1002.20 1002.20 1002.28 1002.44 1002.65 1002.88 1003.11 1003.34 1003.57 1003.80 1004.03 1004.28 1004.55 1004.84 1005.14 1005.46 1005.77 1006.06 1006.31 1006.52 1006.66 1006.75 1006.77 1006.74 1006.67 1006.54 1006.38 1006.19 1005.95 1005.67 1005.35 1004.99 1004.58 1004.13 1003.65 1003.13 1002.59
1003.86 1003.29 1002.77 1002.33 1001.98 1001.74 1001.61 1001.58 1001.62 1001.73 1001.87 1002.04 1002.21 1002.38 1002.56 1002.75 1002.95 1003.19 1003.46 1003.76 1004.09 1004.43 1004.78 1005.10 1005.40 1005.64 1005.83 1005.96 1006.03 1006.05 1006.01 1005.92 1005.79 1005.61 1005.38 1005.10 1004.77 1004.39 1003.96 1003.49 1002.99 1002.46 1001.92
1003.48 1002.90 1002.36 1001.90 1001.53 1001.26 1001.08 1001.00 1000.98 1001.02 1001.08 1001.17 1001.27 1001.38 1001.51 1001.66 1001.85 1002.09 1002.37 1002.70 1003.07 1003.46 1003.85 1004.23 1004.57 1004.86 1005.10 1005.27 1005.38 1005.43 1005.42 1005.36 1005.24 1005.07 1004.84 1004.56 1004.21 1003.80 1003.35 1002.85 1002.32 1001.78 1001.22
1003.14 1002.56 1002.02 1001.55 1001.16 1000.85 1000.63 1000.48 1000.38 1000.33 1000.32 1000.32 1000.34 1000.39 1000.47 1000.60 1000.78 1001.02 1001.33 1001.70 1002.11 1002.55 1002.99 1003.42 1003.80 1004.14 1004.42 1004.62 1004.76 1004.84 1004.85 1004.81 1004.71 1004.54 1004.32 1004.02 1003.66 1003.24 1002.77 1002.25 1001.70 1001.13 1000.56
1002.81 1002.25 1001.72 1001.25 1000.84 1000.50 1000.23 1000.01 999.84 999.70 999.60 999.52 999.47 999.46 999.50 999.60 999.78 1000.04 1000.37 1000.77 1001.22 1001.71 1002.19 1002.66 1003.08 1003.45 1003.75 1003.98 1004.14 1004.24 1004.27 1004.24 1004.15 1004.00 1003.78 1003.49 1003.14 1002.72 1002.24 1001.71 1001.15 1000.57 999.99
1002.46 1001.93 1001.42 1000.95 1000.53 1000.16 999.84 999.57 999.32 999.12 998.93 998.78 998.67 998.61 998.62 998.71 998.89 999.15 999.51 999.94 1000.42 1000.93 1001.44 1001.93 1002.38 1002.76 1003.08 1003.32 1003.49 1003.60 1003.64 1003.63 1003.56 1003.42 1003.23 1002.97 1002.64 1002.24 1001.78 1001.27 1000.72 1000.14 999.55
1002.06 1001.55 1001.06 1000.60 1000.17 999.78 999.43 999.11 998.81 998.54 998.31 998.10 997.95 997.86 997.85 997.93 998.11 998.38 998.75 999.19 999.69 1000.22 1000.74 1001.24 1001.69 1002.08 1002.40 1002.64 1002.82 1002.93 1002.99 1002.99 1002.94 1002.84 1002.68 1002.46 1002.17 1001.82 1001.40 1000.91 1000.38 999.82 999.23
1001.56 1001.06 1000.58 1000.12 999.69 999.29 998.92 998.56 998.24 997.94 997.68 997.45 997.28 997.19 997.17 997.25 997.44 997.72 998.09 998.54 999.04 999.56 1000.08 1000.58 1001.02 1001.40 1001.72 1001.96 1002.14 1002.26 1002.33 1002.35 1002.33 1002.26 1002.14 1001.97 1001.73 1001.43 1001.05 1000.62 1000.12 999.57 998.99
1000.92 1000.42 999.94 999.48 999.04 998.63 998.24 997.88 997.56 997.26 996.99 996.78 996.63 996.54 996.55 996.64 996.84 997.13 997.51 997.96 998.46 998.97 999.48 999.96 1000.40 1000.77 1001.08 1001.31 1001.49 1001.62 1001.70 1001.74 1001.74 1001.70 1001.62 1001.49 1001.31 1001.05 1000.72 1000.33 999.87 999.34 998.77
1000.13 999.60 999.10 998.62 998.17 997.76 997.38 997.03 996.72 996.45 996.23 996.05 995.94 995.89 995.94 996.07 996.29 996.60 996.99 997.44 997.93 998.43 998.93 999.40 999.82 1000.19 1000.49 1000.72 1000.91 1001.04 1001.12 1001.18 1001.20 1001.18 1001.13 1001.03 1000.87 1000.65 1000.36 1000.00 999.56 999.06 998.49
999.18 998.62 998.08 997.58 997.12 996.70 996.34 996.02 995.75 995.53 995.36 995.24 995.20 995.22 995.32 995.49 995.76 996.09 996.50 996.95 997.44 997.94 998.44 998.90 999.31 999.67 999.97 1000.21 1000.39 1000.52 1000.61 1000.67 1000.69 1000.68 1000.63 1000.54 1000.40 1000.20 999.92 999.58 999.16 998.66 998.10
998.12 997.50 996.92 996.39 995.92 995.51 995.17 994.89 994.67 994.51 994.42 994.38 994.41 994.51 994.68 994.92 995.23 995.60 996.03 996.50 997.00 997.50 997.99 998.45 998.86 999.22 999.52 999.76 999.93 1000.06 1000.15 1000.19 1000.20 1000.18 1000.12 1000.02 999.87 999.66 999.39 999.04 998.62 998.13 997.56
996.99 996.32 995.71 995.15 994.68 994.28 993.96 993.73 993.57 993.48 993.46 993.51 993.63 993.81 994.05 994.35 994.71 995.12 995.58 996.07 996.58 997.09 997.58 998.04 998.45 998.81 999.10 999.34 999.51 999.63 999.70 999.72 999.71 999.66 999.58 999.45 999.28 999.05 998.77 998.41 997.99 997.49 996.92
995.86 995.16 994.52 993.96 993.49 993.12 992.83 992.64 992.54 992.52 992.58 992.70 992.89 993.15 993.45 993.82 994.23 994.68 995.17 995.68 996.19 996.71 997.20 997.65 998.06 998.41 998.70 998.92 999.08 999.17 999.22 999.22 999.18 999.10 998.98 998.83 998.63 998.39 998.09 997.73 997.30 996.81 996.24
994.80 994.09 993.46 992.92 992.47 992.12 991.88 991.73 991.68 991.72 991.84 992.02 992.27 992.58 992.95 993.35 993.80 994.28 994.79 995.31 995.83 996.34 996.83 997.27 997.67 998.00 998.27 998.47 998.61 998.68 998.70 998.67 998.60 998.49 998.35 998.17 997.96 997.71 997.41 997.05 996.63 996.15 995.59
Thickness
5603 5596 5588 5580 5571 5562 5555 5548 5539 5530 5520 5510 5500 5490 5480 5469 5456 5444 5434 5422 5409 5398 5386 5374 5364 5353 5343 5334 5324 5314 5304 5295 5292 5297 5287 5278 5268 5260 5253 5245 5239 5234 5231
5593 5586 5579 5572 5563 5556 5549 5541 5532 5523 5513 5503 5492 5482 5472 5462 5450 5438 5427 5415 5404 5392 5380 5368 5357 5346 5336 5326 5316 5307 5298 5288 5281 5281 5280 5271 5263 5255 5249 5243 5236 5230 5227
5582 5575 5569 5563 5556 5549 5542 5533 5524 5515 5506 5495 5485 5476 5466 5455 5444 5433 5421 5410 5398 5387 5375 5363 5352 5340 5330 5320 5311 5302 5292 5283 5275 5270 5271 5265 5259 5252 5246 5241 5234 5228 5224
5570 5564 5559 5554 5548 5542 5534 5526 5517 5507 5498 5488 5478 5469 5458 5448 5437 5426 5415 5403 5392 5380 5369 5358 5346 5335 5325 5315 5305 5296 5286 5278 5271 5265 5264 5261 5256 5249 5241 5236 5233 5227 5223
5559 5554 5550 5544 5539 5532 5525 5517 5508 5499 5490 5480 5471 5462 5453 5442 5432 5420 5408 5396 5384 5374 5363 5352 5342 5331 5321 5311 5301 5292 5282 5275 5268 5263 5260 5257 5252 5244 5237 5231 5227 5225 5222
5547 5543 5539 5533 5528 5522 5516 5508 5501 5492 5483 5474 5465 5456 5447 5438 5428 5416 5403 5390 5379 5368 5358 5347 5337 5327 5318 5309 5300 5291 5281 5271 5265 5259 5256 5251 5246 5238 5232 5224 5219 5218 5221
5534 5530 5526 5521 5517 5513 5507 5500 5493 5486 5477 5469 5460 5451 5443 5434 5423 5412 5400 5387 5375 5364 5354 5343 5333 5325 5315 5305 5296 5288 5279 5269 5261 5254 5250 5245 5239 5233 5225 5221 5216 5212 5213
5521 5518 5515 5511 5508 5504 5499 5493 5487 5479 5471 5462 5453 5444 5436 5428 5417 5407 5396 5383 5373 5362 5352 5341 5331 5322 5311 5301 5291 5283 5275 5267 5259 5251 5245 5240 5233 5227 5220 5215 5212 5211 5211
5511 5510 5507 5503 5499 5496 5492 5487 5480 5473 5465 5457 5448 5439 5430 5423 5411 5402 5390 5380 5369 5360 5349 5338 5328 5319 5309 5298 5289 5282 5275 5269 5260 5252 5245 5238 5232 5226 5219 5214 5210 5207 5210
5507 5504 5500 5497 5492 5489 5485 5480 5473 5466 5459 5450 5442 5433 5425 5416 5406 5396 5385 5374 5365 5356 5345 5335 5324 5315 5306 5296 5286 5279 5274 5268 5259 5252 5245 5238 5231 5225 5218 5210 5205 5202 5203
5498 5494 5491 5488 5484 5481 5477 5472 5465 5458 5450 5443 5435 5427 5418 5409 5400 5390 5381 5370 5361 5351 5341 5332 5322 5312 5302 5293 5285 5278 5271 5264 5257 5251 5244 5238 5231 5225 5218 5211 5205 5200 5199
5486 5484 5481 5479 5475 5470 5466 5461 5455 5447 5440 5433 5426 5418 5410 5400 5392 5384 5375 5366 5356 5345 5336 5327 5317 5307 5298 5290 5282 5275 5268 5260 5254 5248 5242 5236 5231 5225 5219 5213 5207 5202 5199
5477 5475 5473 5470 5465 5460 5455 5450 5443 5436 5429 5423 5416 5409 5401 5392 5384 5376 5369 5361 5352 5341 5332 5322 5312 5303 5294 5286 5278 5270 5263 5256 5250 5244 5238 5233 5228 5222 5217 5213 5210 5206 5204
5467 5465 5463 5459 5455 5450 5443 5437 5432 5426 5419 5412 5406 5399 5392 5384 5376 5368 5361 5353 5346 5336 5327 5317 5307 5298 5289 5280 5273 5266 5259 5252 5245 5239 5234 5229 5224 5219 5216 5213 5211 5208 5208
5456 5453 5451 5447 5443 5439 5434 5427 5421 5416 5407 5400 5395 5388 5382 5377 5370 5361 5354 5347 5340 5331 5320 5310 5301 5293 5285 5277 5270 5262 5255 5248 5241 5236 5230 5225 5221 5217 5214 5211 5209 5208 5208
5444 5442 5439 5436 5432 5427 5423 5418 5412 5403 5397 5390 5383 5376 5371 5366 5360 5353 5346 5340 5332 5323 5313 5305 5297 5289 5281 5274 5266 5259 5251 5245 5238 5232 5226 5221 5217 5214 5212 5211 5210 5209 5209
5431 5429 5427 5423 5420 5415 5410 5405 5401 5396 5388 5381 5374 5368 5361 5355 5350 5345 5339 5332 5324 5316 5308 5301 5294 5285 5277 5269 5262 5254 5248 5241 5234 5227 5221 5217 5214 5211 5210 5210 5210 5210 5210
5421 5419 5415 5412 5408 5403 5398 5392 5386 5381 5377 5372 5366 5360 5353 5347 5342 5338 5332 5325 5318 5311 5304 5298 5290 5282 5273 5265 5257 5250 5243 5236 5230 5223 5218 5214 5210 5209 5209 5209 5209 5209 5210
5412 5409 5406 5402 5397 5391 5386 5380 5374 5368 5363 5359 5355 5350 5345 5340 5336 5331 5326 5320 5315 5308 5300 5293 5285 5277 5269 5261 5253 5246 5238 5232 5226 5220 5215 5211 5209 5207 5207 5207 5208 5208 5209
5405 5401 5396 5392 5388 5383 5376 5370 5364 5359 5353 5349 5345 5341 5336 5333 5330 5327 5321 5316 5310 5303 5296 5288 5280 5272 5264 5256 5249 5241 5234 5228 5223 5217 5213 5209 5207 5206 5205 5205 5206 5207 5209
5397 5394 5388 5383 5378 5373 5368 5362 5356 5350 5345 5342 5337 5333 5329 5328 5326 5322 5317 5311 5305 5298 5291 5283 5276 5268 5259 5252 5244 5237 5230 5225 5219 5214 5210 5207 5205 5204 5203 5203 5205 5206 5208
5389 5386 5381 5376 5372 5366 5361 5355 5350 5345 5340 5335 5331 5327 5324 5322 5320 5316 5312 5306 5300 5293 5286 5278 5271 5263 5256 5248 5241 5234 5228 5222 5216 5212 5208 5205 5203 5201 5201 5202 5203 5206 5209
5383 5379 5376 5372 5367 5362 5357 5351 5346 5340 5335 5330 5326 5322 5319 5318 5315 5311 5306 5301 5294 5287 5280 5272 5266 5259 5251 5243 5236 5230 5223 5218 5213 5209 5205 5203 5201 5200 5200 5201 5203 5206 5210
5378 5374 5371 5367 5362 5358 5353 5348 5342 5337 5332 5328 5323 5319 5316 5314 5311 5307 5301 5295 5288 5282 5275 5268 5261 5254 5246 5239 5232 5225 5219 5214 5209 5206 5202 5200 5199 5198 5199 5201 5204 5209 5213
5374 5370 5366 5362 5358 5353 5348 5344 5339 5334 5330 5325 5321 5316 5313 5310 5307 5302 5296 5290 5283 5277 5270 5263 5256 5249 5242 5235 5228 5222 5217 5212 5208 5205 5201 5199 5198 5197 5199 5202 5207 5211 5216
5370 5366 5362 5358 5354 5349 5345 5341 5336 5331 5327 5322 5318 5314 5310 5307 5303 5297 5291 5285 5279 5273 5266 5259 5252 5245 5238 5232 5226 5220 5216 5212 5209 5206 5202 5200 5199 5200 5202 5206 5210 5215 5221